DW8097 Weather Reports


Display with metric or nautical units.
time (UTC)temp
F
wind
direction
speed
MPH
gust
MPH
rain 1hr
in
rain 24hr
in
rain mn
in
humidity
%
barometer
mb
20260504044503 52 190 0.0 2.0 0.00 0.00 0.00 55 1001.2
20260504043110 52 190 0.0 1.0 0.00 0.00 0.00 57 1001.3
20260504041554 52 190 0.0 1.0 0.00 0.00 0.00 57 1001.5
20260504040058 50 190 1.0 2.0 0.00 0.00 0.00 62 1001.7
20260504034549 53 190 0.0 0.0 0.00 0.00 0.00 56 1001.9
20260504033054 53 190 0.0 1.0 0.00 0.00 0.00 56 1002.1
20260504031546 52 190 1.0 2.0 0.00 0.00 0.00 57 1002.3
20260504030042 54 190 0.0 1.0 0.00 0.00 0.00 52 1002.4
20260504024536 55 190 0.0 2.0 0.00 0.00 0.00 51 1002.3
20260504023035 55 221 0.0 2.0 0.00 0.00 0.00 50 1002.3
20260504021530 57 226 0.0 2.0 0.00 0.00 0.00 47 1002.4
20260504020030 58 229 1.0 2.0 0.00 0.00 0.00 45 1002.4
20260504014539 60 209 0.0 2.0 0.00 0.00 0.00 41 1002.4
20260504013015 63 301 0.0 4.0 0.00 0.00 0.00 33 1002.4
20260504011506 65 281 1.0 2.0 0.00 0.00 0.00 29 1002.4
20260504010006 66 297 0.0 3.0 0.00 0.00 0.00 29 1002.4
20260504004506 67 319 2.0 8.0 0.00 0.00 0.00 27 1002.3
20260504003004 68 296 3.0 9.0 0.00 0.00 0.00 26 1002.2
20260504001542 69 314 6.0 12.0 0.00 0.00 0.00 26 1002.3
20260504000041 70 344 5.0 9.0 0.00 0.00 0.00 26 1002.3
20260503234530 71 329 6.0 10.0 0.00 0.00 0.00 25 1002.3
20260503233029 71 314 4.0 12.0 0.00 0.00 0.00 24 1002.3
20260503231529 72 342 3.0 12.0 0.00 0.00 0.00 24 1002.4
20260503230028 71 355 7.0 14.0 0.00 0.00 0.00 22 1002.5
20260503224535 72 342 9.0 14.0 0.00 0.00 0.00 21 1002.5
20260503223025 72 329 7.0 17.0 0.00 0.00 0.00 21 1002.6
20260503221526 72 343 12.0 20.0 0.00 0.00 0.00 22 1002.4
20260503221524 72 9 12.0 20.0 0.00 0.00 0.00 22 1002.4
20260503220024 72 22 7.0 15.0 0.00 0.00 0.00 24 1002.4
20260503214530 72 360 5.0 12.0 0.00 0.00 0.00 25 1002.4
20260503213018 73 303 6.0 16.0 0.00 0.00 0.00 26 1002.4
20260503211516 73 355 9.0 16.0 0.00 0.00 0.00 27 1002.4
20260503210035 73 325 6.0 16.0 0.00 0.00 0.00 28 1002.6
20260503204512 73 355 6.0 14.0 0.00 0.00 0.00 28 1002.8
20260503203038 73 29 6.0 13.0 0.00 0.00 0.00 30 1003.0
20260503201538 73 355 5.0 11.0 0.00 0.00 0.00 30 1003.0
20260503200043 73 331 7.0 16.0 0.00 0.00 0.00 30 1003.1
20260503194534 72 30 7.0 15.0 0.00 0.00 0.00 29 1003.2
20260503193032 72 14 4.0 15.0 0.00 0.00 0.00 31 1003.3
20260503191534 72 350 8.0 16.0 0.00 0.00 0.00 30 1003.3
20260503190021 72 346 10.0 18.0 0.00 0.00 0.00 27 1003.4
20260503184521 71 351 10.0 16.0 0.00 0.00 0.00 31 1003.4
20260503183022 71 329 7.0 12.0 0.00 0.00 0.00 32 1003.5
20260503181514 70 338 6.0 13.0 0.00 0.00 0.00 34 1003.7
20260503180007 71 306 5.0 10.0 0.00 0.00 0.00 32 1003.8
20260503174502 69 350 5.0 14.0 0.00 0.00 0.00 36 1003.9
20260503173154 70 48 2.0 10.0 0.00 0.00 0.00 36 1004.1
20260503171554 68 24 6.0 8.0 0.00 0.00 0.00 35 1004.1
20260503081559 56 253 6.0 16.0 0.00 0.00 0.00 49 1005.2
20260503071543 54 221 4.0 7.0 0.00 0.00 0.00 49 1006.6